www.pogodaiklimat.ru

Погода и климат >> Архив погоды >> Сенегал >> Зигиншор


ПОГОДА в Зигиншоре

  • Прогноз погоды в Зигиншоре
  • Монитор погоды в Зигиншоре

АРХИВ ПОГОДЫ в Зигиншоре

Время (UTC), дата Ветер
(напр.,м/с)
 
Видим.   Явления Облачность Т
(С)
Тd
(С)
f
(%)
Тe
(С)
Тes
(С)
Комфортность P
(гПа)
Po
(гПа)
Тmin
(С)
Tmax
(С)
R
(мм)
R24
(мм)
S
(см)
09 11.02 С 1 8000 м 4/0
[Ci sp]
+20.7 +18.0 85 +26 +30 душно 1011.9 1009.3
12 11.02 СВ 2 10 км 6/0
[Ac trans Ci sp]
+33.1 +10.8 26 +33 +45 жарко 1012.0 1009.4
15 11.02 С 3 10 км 4/0
[Ci sp]
+38.6 +8.2 16 +37 +47 очень
жарко
1010.4 1007.8
18 11.02 СВ 1 10 км 8/0
[Ci sp]
+36.3 +13.6 26 +37 +38 очень
жарко
1009.6 1007.0 +39.3
21 11.02 ЮЗ 1 8000 м 8/0
[Ac trans]
+27.8 +17.4 53 +32 +32 душно 1011.4 1008.7
00 12.02 ЮЗ 1 8000 м 5/0
[Ac trans]
+23.2 +17.5 70 +29 +29 душно 1011.6 1008.8
03 12.02 С 1 8000 м ясно +20.4 +15.6 74 +24 +24 комфорт 1011.1 1008.6
06 12.02 С 2 8000 м ясно +20.5 +9.8 50 +23 +23 комфорт 1011.2 1008.6 +19.0
09 12.02 С 3 10 км ясно +24.0 +5.6 30 +24 +27 комфорт 1013.0 1010.4
12 12.02 СВ 4 10 км ясно +33.8 +5.9 18 +32 +43 жарко 1012.7 1010.1
15 12.02 СВ 6 12 км 8/0
[Ac und Ci sp]
+39.0 +7.7 15 +37 +40 очень
жарко
1009.8 1007.3
18 12.02 СВ 2 12 км 9/0
[Ac trans Ci sp]
+37.2 +7.2 16 +35 +36 очень
жарко
1008.6 1006.0 +39.6
21 12.02 ЮЗ 2 8000 м 3/0
[Ac cast]
+26.8 +14.6 47 +29 +29 жарко 1010.2 1007.6
00 13.02 З 1 8000 м ясно +21.8 +15.3 67 +25 +25 комфорт 1011.5 1008.9
03 13.02 С 2 8000 м ясно +19.3 +11.8 62 +21 +21 комфорт 1011.0 1008.4
06 13.02 С 3 8000 м ясно +23.0 +9.4 42 +25 +25 комфорт 1010.5 1007.9 +19.0
09 13.02 С 4 8000 м 5/0
[Ci sp]
+24.2 +4.1 27 +24 +26 комфорт 1012.6 1010.0
12 13.02 В 3 8000 м 8/0
[Ac und Ci sp]
+34.0 +1.5 13 +31 +40 жарко 1012.6 1010.0
15 13.02 В 3 10 км 6/0
[Ac trans Ci sp]
+39.5 +4.1 11 +36 +45 очень
жарко
1010.0 1007.4
18 13.02 ЮВ 3 10 км 8/0
[Ac trans Ci sp]
+36.5 +10.3 20 +35 +36 очень
жарко
1008.9 1006.3 +38.8
00 14.02 ЮЗ 1 8000 м 9/0
[Ac cast]
+23.5 +18.0 71 +28 +28 душно 1012.6 1010.0
03 14.02 С 1 8000 м 3/0
[Ac cast]
+22.0 +17.5 76 +27 +27 душно 1012.4 1009.8
06 14.02 штиль 0 8000 м ясно +19.0 +16.9 88 +20 +20 1012.7 1010.1 +19.2
09 14.02 штиль 0 10 км 9/0
[Ac trans]
+21.0 +18.5 86 +25 +27 комфорт 1014.0 1011.4
12 14.02 С 3 10 км 8/0
[Ac cast]
+33.2 +7.8 21 +32 +38 жарко 1014.2 1011.6
15 14.02 С 2 10 км 9/0
[Ac cast]
+36.0 +6.2 16 +34 +39 очень
жарко
1011.9 1009.5
18 14.02 СЗ 3 10 км 8/0
[Ac cast Ci sp]
+35.0 +8.9 20 +33 +34 жарко 1010.8 1008.2 +38.5
21 14.02 З 1 8000 м 9/0
[Ac As]
+29.0 +15.2 43 +32 +32 душно 1013.4 1010.8
00 15.02 З 1 8000 м 9/0
[Ac As]
+26.3 +14.1 47 +29 +29 жарко 1014.9 1012.3
03 15.02 ЮЗ 1 8000 м 8/0
[Ac As]
+23.0 +15.4 62 +27 +27 душно 1014.4 1011.8
06 15.02 СЗ 1 8000 м 8/0
[Ac As]
+22.8 +15.7 64 +27 +27 душно 1013.6 1011.0 +20.9
09 15.02 С 2 8000 м 9/0
[Ac cast]
+22.8 +10.6 46 +25 +26 комфорт 1014.5 1011.8
12 15.02 С 2 10 км 9/0
[Ac cast]
+31.5 +6.7 21 +30 +36 жарко 1014.5 1011.9
15 15.02 С 2 10 км 8/0
[Ac cast Ci sp]
+35.0 +8.9 20 +33 +41 жарко 1012.5 1009.9
18 15.02 Ю 2 10 км 6/0
[Ci sp]
+35.1 +13.8 28 +36 +37 очень
жарко
1011.0 1008.4 +39.0
21 15.02 ЮЗ 2 10 км 10/0
[Ci sp]
+26.8 +17.7 57 +31 +31 душно 1012.9 1010.3
00 16.02 ЮЗ 2 10 км 10/0
[Ci sp]
+24.4 +18.3 69 +29 +29 душно 1013.9 1011.3
03 16.02 СЗ 2 10 км 9/0
[Ci sp]
+23.4 +15.3 60 +28 +28 душно 1012.5 1009.9
06 16.02 СЗ 2 10 км 9/0
[Ci sp]
+23.4 +12.3 50 +26 +26 жарко 1012.1 1009.5
09 16.02 С 2 10 км 9/0
[Ac trans Ci sp]
+23.0 +7.9 38 +24 +27 комфорт 1013.0 1010.3
12 16.02 С 3 8000 м 6/0
[Ci sp]
+31.9 +6.3 20 +30 +42 жарко 1013.9 1011.3
15 16.02 СЗ 2 10 км 9/0
[Ac cast Ci sp]
+37.0 +7.4 16 +35 +44 очень
жарко
1010.7 1008.1
18 16.02 С 3 8000 м 9/0
[Ac cast Ci sp]
+34.0 +7.0 19 +32 +33 жарко 1009.7 1007.1 +39.0
21 16.02 СЗ 2 8000 м 5/0
[Ci sp]
+27.1 +12.7 41 +29 +29 жарко 1011.9 1009.3
00 17.02 СЗ 2 8000 м 8/0
[Ac cast Ci sp]
+24.0 +13.9 53 +26 +26 жарко 1013.1 1010.5
03 17.02 СЗ 2 8000 м 8/0
[Ac trans Ci sp]
+22.1 +16.3 70 +26 +26 душно 1012.1 1009.5
06 17.02 СЗ 3 8000 м 6/0
[Ac trans Ci sp]
+20.6 +13.9 65 +23 +23 комфорт 1011.9 1009.3 +20.6
09 17.02 С 2 8000 м 6/0
[Ci sp]
+20.4 +13.1 63 +23 +27 комфорт 1013.1 1010.5
12 17.02 С 2 10 км 9/0
[Ci]
+30.0 +11.6 32 +31 +44 жарко 1013.9 1011.3
15 17.02 СЗ 2 10 км 3/0
[Ci sp]
+35.4 +9.7 21 +34 +47 очень
жарко
1010.9 1008.3
18 17.02 ЮЗ 4 10 км 9/0
[Ci sp]
+35.0 +12.9 26 +35 +36 очень
жарко
1009.6 1007.0 +37.5
21 17.02 З 2 10 км 9/0
[Ci sp]
+23.7 +17.0 66 +27 +27 жарко 1011.8 1009.1
03 18.02 СЗ 1 10 км ясно +21.0 +16.1 74 +26 +26 душно 1012.1 1009.5
06 18.02 СЗ 1 10 км 4/0
[Ci sp]
+18.7 +15.0 79 +21 +21 комфорт 1012.2 1009.6 +18.5

 

Местоположение метеостанции Зигиншор (Сенегал): широта 12.55 долгота -16.26 высота над уровнем моря 23 м.

В архиве по умолчанию представлена погода в Зигиншоре за последнюю неделю. Архивные данные за месяц целиком и за предыдущие месяцы, начиная с января 2011 года, Вы можете получить, выбрав интересующий диапазон дат из раскрывающегося списка и нажав кнопку "Ввод!".


*Определитесь, кто Вы:
робот инопланетянин человек

Внимание! Время в таблицах - всемирное. Для получения местного времени необходимо прибавить поправку, которая равна 0 ч.

Смотрите также архив погоды в соседних городах и на ближайших метеорологических станциях:

Погода в Кап Скиррен (Сенегал) (56 км)
Погода в Сибаноре (Гамбия) (75 км)
Погода в Банжуле (Гамбия) (98 км)
Погода в Биссау (Гвинея-Биссау) (98 км)
Погода в Банжуле Half-Die (Гамбия) (102 км)
Погода в Кереване (Гамбия) (106 км)
Погода в Сапу (Гамбия) (119 км)
Погода в Женое (Гамбия) (128 км)
Погода в Боламе (Гвинея-Биссау) (137 км)
Погода в Колде (Сенегал) (146 км)

Пояснения к столбцам:

Ветер - указаны скорость ветра в м/с - средняя за 10 мин, порывы в срок и между сроками (в фигурных скобках) и направление, откуда дует ветер: С - северный, СВ - северо-восточный, В - восточный, ЮВ - юго-восточный, Ю - южный, ЮЗ - юго-западный, З - западный, СЗ - северо-западный.
Видимость - горизонтальная дальность видимости в метрах или километрах. При видимости от 1 до 10 км при отсутствии осадков обычно наблюдается дымка, при ухудшении видимости до 1 км и менее - туман. В сухую погоду видимость может ухудшаться дымом, пылью или мглою.
Явления - указаны атмосферные явления, наблюдавшиеся в срок или в последний час перед сроком; фигурными скобками обозначены явления, наблюдавшиеся между сроками (за 1-3 часа до срока); квадратными скобками обозначены град или гололедные отложения с указанием их диаметра в мм.
Облачность - указаны через наклонную черту общая и нижняя облачность в баллах и высота нижней границы облаков в метрах; квадратными скобками обозначены формы облаков: Ci - перистые, Cs - перисто-слоистые, Cc - перисто-кучевые, Ac - высококучевые, As - высокослоистые, Sc - слоисто-кучевые, Ns - слоисто-дождевые, Cu - кучевые, Cb - кучево-дождевые. Подробнее классификацию облаков см. в Атласе облаков (PDF).
T - Температура воздуха - температура, измеренная на высоте 2 м над землей.
Td - Температура точки росы - температура, при понижении до которой содержащийся в воздухе водяной пар достигнет насыщения.
f - Относительная влажность воздуха - влажноcть воздуха, измеренная на высоте 2 м над землей.
Te - Эффективная температура - температура, которую ощущает одетый по сезону человек в тени. Характеристика душности погоды. При расчете учитывается влияние влажности воздуха и скорости ветра на теплоощущения человека.
Tes - Эффективная температура на солнце - температура, которую ощущает человек, с поправкой на солнечный нагрев. Характеристика знойности погоды. Зависит от высоты солнца над горизонтом, облачности и скорости ветра. Ночью, в пасмурную погоду, а также при ветре 12 м/с и более поправка равна нулю.
P - Атмосферное давление - приведенное к уровню моря атмосферное давление.
Po - Атмосферное давление - измеренное на уровне метеостанции атмосферное давление.
Tmin - Минимальная температура - минимум температуры воздуха на высоте 2 м над землей.
Tmax - Максимальная температура - максимум температуры воздуха на высоте 2 м над землей.
R - Количество осадков - Количество выпавших осадков за период времени, мм. При наведении курсора мыши на число - период времени, за который выпало указанное количество осадков.
R24 - Количество осадков - Количество выпавших осадков за 24 часа, мм.
S - Снежный покров - Высота снежного покрова, см. При наведении курсора мыши на число - состояние снежного покрова и степень покрытия местности в баллах.